Location: Ch�tillon
(48.8024°N, 2.2935°E)
Time: 01:37:50
(UTC+00:00)

Oscar 19 - Pass Details

Date: 06 July 2022
Orbit: 773 x 790 km, 98.8° (Epoch: 08 August)

Event Time Altitude Azimuth Distance (km) Brightness Sun altitude
Rises 02:42:19 0° 22° (NNE) 3,262 15.6 -9.4°
Reaches altitude 10° 02:44:53 10° 33° (NNE) 2,329 14.8 -9.1°
Maximum altitude 02:49:28 32° 96° (E) 1,309 12.2 -8.7°
Drops below altitude 10° 02:54:00 10° 159° (SSE) 2,316 12.8 -8.2°
Sets 02:56:32 0° 169° (S) 3,240 13.5 -7.9°
